EW6866 Weather Reports


time (UTC)temp
F
wind
direction
speed
knots
gust
knots
rain 1hr
in
rain 24hr
in
rain mn
in
humidity
%
barometer
mb
20260510223004 77 295 0.0 0.9 0.00 0.00 0.00 72 1012.4
20260510221504 77 293 0.0 0.9 0.00 0.00 0.00 71 1012.4
20260510220005 77 327 0.0 1.7 0.00 0.00 0.00 69 1012.3
20260510214505 77 302 0.0 1.7 0.00 0.00 0.00 69 1012.4
20260510213005 77 295 0.0 4.3 0.00 0.00 0.00 66 1012.3
20260510211505 78 297 0.0 2.6 0.00 0.00 0.00 65 1012.4
20260510210005 79 0 0.0 0.0 0.00 0.00 0.00 63 1012.3
20260510204506 81 34 0.0 0.9 0.00 0.00 0.00 58 1012.3
20260510203004 82 275 0.0 4.3 0.00 0.00 0.00 55 1012.2
20260510201525 81 245 0.0 0.9 0.00 0.00 0.00 58 1012.3
20260510200005 82 257 0.0 2.6 0.00 0.00 0.00 54 1012.6
20260510194505 84 282 0.0 1.7 0.00 0.00 0.00 55 1012.8
20260510193005 86 159 0.0 1.7 0.00 0.00 0.00 50 1012.9
20260510191505 85 267 0.0 1.7 0.00 0.00 0.00 52 1012.9
20260510190025 85 286 0.0 1.7 0.00 0.00 0.00 47 1013.1
20260510184504 84 20 0.0 0.9 0.00 0.00 0.00 49 1013.1
20260510183004 83 269 0.9 3.5 0.00 0.00 0.00 46 1013.1
20260510181505 84 223 0.0 2.6 0.00 0.00 0.00 47 1013.2
20260510180005 84 234 0.9 3.5 0.00 0.00 0.00 41 1013.4
20260510174526 83 262 0.9 4.3 0.00 0.00 0.00 45 1013.6
20260510173026 83 275 0.0 3.5 0.00 0.00 0.00 41 1013.6
20260510171504 82 263 0.9 3.5 0.00 0.00 0.00 46 1013.6
20260510170004 81 264 0.0 4.3 0.00 0.00 0.00 50 1013.8
20260510164504 81 263 0.9 4.3 0.00 0.00 0.00 56 1013.9
20260510163005 81 270 0.9 2.6 0.00 0.00 0.00 58 1013.8
20260510161504 79 245 0.9 5.2 0.00 0.00 0.00 59 1013.9
20260510160025 80 269 0.9 4.3 0.00 0.00 0.00 60 1014.0
20260510154504 81 181 0.0 3.5 0.00 0.00 0.00 62 1013.9
20260510153004 80 78 0.0 0.9 0.00 0.00 0.00 57 1014.0
20260510151525 79 70 0.0 0.9 0.00 0.00 0.00 62 1014.1
20260510150004 78 72 0.0 1.7 0.00 0.00 0.00 62 1014.2
20260510144504 78 68 0.0 0.9 0.00 0.00 0.00 72 1014.2
20260510143004 77 160 0.0 1.7 0.00 0.00 0.00 73 1014.0
20260510141504 75 178 0.0 1.7 0.00 0.00 0.00 77 1013.8
20260510140004 74 167 0.0 1.7 0.00 0.00 0.00 81 1013.7
20260510134503 72 171 0.0 1.7 0.00 0.00 0.00 85 1013.7
20260510133004 71 177 0.0 2.6 0.00 0.00 0.00 88 1013.7
20260510131504 69 138 0.0 2.6 0.00 0.00 0.00 93 1013.7
20260510130005 68 167 0.0 2.6 0.00 0.00 0.00 96 1013.6
20260510124503 67 151 0.0 1.7 0.00 0.00 0.00 98 1013.3
20260510123004 67 0 0.0 0.0 0.00 0.00 0.00 98 1013.2
20260510121504 66 135 0.0 0.9 0.00 0.00 0.00 98 1013.1
20260510120004 66 0 0.0 0.0 0.00 0.00 0.00 98 1012.9
20260510114503 65 0 0.0 0.0 0.00 0.00 0.00 99 1012.8
20260510113004 64 0 0.0 0.0 0.00 0.00 0.00 98 1012.8
20260510111504 64 0 0.0 0.0 0.00 0.00 0.00 98 1012.6
20260510110005 63 0 0.0 0.0 0.00 0.00 0.00 98 1012.5
20260510104503 62 0 0.0 0.0 0.00 0.00 0.00 97 1012.2
20260510103003 63 0 0.0 0.0 0.00 0.00 0.00 98 1012.0
20260510101504 62 0 0.0 0.0 0.00 0.00 0.00 97 1011.7
20260510100004 62 0 0.0 0.0 0.00 0.00 0.00 97 1011.6
20260510094504 62 0 0.0 0.0 0.00 0.00 0.00 97 1011.4
20260510093004 63 0 0.0 0.0 0.00 0.00 0.00 97 1011.2
20260510091503 63 0 0.0 0.0 0.00 0.00 0.00 97 1011.2
20260510090004 63 0 0.0 0.0 0.00 0.00 0.00 97 1011.0
20260510084503 63 0 0.0 0.0 0.00 0.00 0.00 97 1011.0
20260510083004 62 0 0.0 0.0 0.00 0.00 0.00 97 1010.9
20260510081504 62 0 0.0 0.0 0.00 0.00 0.00 96 1010.9
20260510080004 63 0 0.0 0.0 0.00 0.00 0.00 97 1010.9
20260510074505 63 0 0.0 0.0 0.00 0.00 0.00 96 1010.9
20260510073005 63 0 0.0 0.0 0.00 0.00 0.00 96 1010.8
20260510071506 63 0 0.0 0.0 0.00 0.00 0.00 97 1010.6
20260510070005 63 0 0.0 0.0 0.00 0.00 0.00 96 1010.6
20260510064505 63 0 0.0 0.0 0.00 0.00 0.00 96 1010.6
20260510063006 63 0 0.0 0.0 0.00 0.00 0.00 96 1010.6
20260510061505 64 0 0.0 0.0 0.00 0.00 0.00 96 1010.7
20260510060006 63 0 0.0 0.0 0.00 0.00 0.00 95 1010.7
20260510054526 63 0 0.0 0.0 0.00 0.00 0.00 95 1010.9
20260510053005 63 0 0.0 0.0 0.00 0.00 0.00 95 1011.0
20260510051505 63 0 0.0 0.0 0.00 0.00 0.00 95 1011.2
20260510050006 63 0 0.0 0.0 0.00 0.00 0.00 94 1011.1
20260510044505 63 0 0.0 0.0 0.00 0.00 0.00 94 1011.1
20260510043005 63 0 0.0 0.0 0.00 0.00 0.00 93 1010.9
20260510041505 63 0 0.0 0.0 0.00 0.00 0.00 92 1010.8
20260510040006 63 0 0.0 0.0 0.00 0.00 0.00 92 1010.8
20260510034506 63 0 0.0 0.0 0.00 0.00 0.00 92 1010.7
20260510033026 63 0 0.0 0.0 0.00 0.00 0.00 91 1010.6
20260510031504 64 0 0.0 0.0 0.00 0.00 0.00 91 1010.4
20260510030005 64 0 0.0 0.0 0.00 0.00 0.00 90 1010.5
20260510024505 64 0 0.0 0.0 0.00 0.00 0.00 90 1010.4
20260510023005 64 0 0.0 0.0 0.00 0.00 0.00 90 1010.3
20260510021506 64 0 0.0 0.0 0.00 0.00 0.00 89 1010.4
20260510020005 65 0 0.0 0.0 0.00 0.00 0.00 89 1010.3
20260510014505 65 0 0.0 0.0 0.00 0.00 0.00 88 1010.2
20260510013005 66 0 0.0 0.0 0.00 0.00 0.00 87 1010.2
20260510011505 66 0 0.0 0.0 0.00 0.00 0.00 86 1010.3
20260510010005 67 0 0.0 0.0 0.00 0.00 0.00 85 1010.1
20260510004505 68 0 0.0 0.0 0.00 0.00 0.00 83 1009.9
20260510003005 68 0 0.0 0.0 0.00 0.00 0.00 82 1009.5
20260510001504 69 0 0.0 0.0 0.00 0.00 0.00 81 1009.6
20260510000005 70 0 0.0 0.0 0.00 0.00 0.00 79 1009.6
20260509234505 71 0 0.0 0.0 0.00 0.00 0.00 77 1009.4
20260509233005 72 0 0.0 0.0 0.00 0.00 0.00 75 1009.2
20260509231504 73 0 0.0 0.0 0.00 0.00 0.00 74 1009.3
20260509230004 73 163 0.0 0.9 0.00 0.00 0.00 72 1009.3
20260509224525 74 135 0.0 0.9 0.00 0.00 0.00 70 1009.2